When you browse on this site, cookies collect data to enhance your experience and personalize the content and advertising you see.
Visit our Privacy Policy to learn more. By continuing to use the site, you agree to this use of cookies and data.
  • In Slovakia
  • List of Countries
  • For 7 days
  • Water Temperature
  • Satellite Maps
  • Weather Map
  • Weather Widgets
  • user-avatar
    Login

    Hourly Weather Veliko Tarnovo

    Today, 25 June, Tuesday

    Time Temperature Precipitation Wind Pressure Humidity
    00:00 +21°C° 0.1 mm 1 mps 740 mmHg 90%
    01:00 +21°C° 0.1 mm 1 mps 740 mmHg 91%
    02:00 +20°C° 0.1 mm 1 mps 741 mmHg 92%
    03:00 +20°C° 0.4 mm 1 mps 741 mmHg 93%
    04:00 +20°C° 0.4 mm 1 mps 740 mmHg 94%
    05:00 +20°C° 0.4 mm 1 mps 740 mmHg 95%
    06:00 +21°C° 0 mm 1 mps 741 mmHg 92%
    07:00 +22°C° 0 mm 1 mps 741 mmHg 89%
    08:00 +24°C° 0 mm 1 mps 741 mmHg 86%
    09:00 +25°C° 1.1 mm 2 mps 741 mmHg 81%
    10:00 +26°C° 1.1 mm 2 mps 742 mmHg 76%
    11:00 +28°C° 1.1 mm 3 mps 742 mmHg 70%
    12:00 +28°C° 2 mm 3 mps 742 mmHg 71%
    13:00 +28°C° 2 mm 3 mps 742 mmHg 72%
    14:00 +28°C° 2 mm 4 mps 742 mmHg 73%
    15:00 +27°C° 2.2 mm 4 mps 741 mmHg 76%
    16:00 +27°C° 2.2 mm 3 mps 741 mmHg 79%
    17:00 +27°C° 2.2 mm 3 mps 741 mmHg 82%
    18:00 +25°C° 1.6 mm 3 mps 741 mmHg 84%
    19:00 +23°C° 1.6 mm 4 mps 742 mmHg 87%
    20:00 +22°C° 1.6 mm 4 mps 742 mmHg 89%
    21:00 +21°C° 1 mm 3 mps 742 mmHg 92%
    22:00 +21°C° 1 mm 2 mps 743 mmHg 94%
    23:00 +21°C° 1 mm 1 mps 743 mmHg 96%

    Tomorrow, 26 June, Wednesday

    Time Temperature Precipitation Wind Pressure Humidity
    00:00 +21°C° 0.1 mm 1 mps 743 mmHg 96%
    01:00 +20°C° 0.1 mm 1 mps 743 mmHg 96%
    02:00 +20°C° 0.1 mm 1 mps 743 mmHg 96%
    03:00 +20°C° 0.1 mm 1 mps 743 mmHg 97%
    04:00 +20°C° 0.1 mm 1 mps 743 mmHg 97%
    05:00 +20°C° 0.1 mm 1 mps 743 mmHg 97%
    06:00 +20°C° 0 mm 1 mps 743 mmHg 96%
    07:00 +21°C° 0 mm 1 mps 743 mmHg 96%
    08:00 +21°C° 0 mm 2 mps 744 mmHg 95%
    09:00 +21°C° 0.1 mm 2 mps 744 mmHg 93%
    10:00 +23°C° 0.1 mm 2 mps 744 mmHg 90%
    11:00 +24°C° 0.1 mm 3 mps 744 mmHg 88%
    12:00 +25°C° 0.4 mm 3 mps 743 mmHg 84%
    13:00 +26°C° 0.4 mm 3 mps 743 mmHg 80%
    14:00 +27°C° 0.4 mm 4 mps 743 mmHg 75%
    15:00 +27°C° 0.2 mm 4 mps 743 mmHg 74%
    16:00 +27°C° 0.2 mm 3 mps 743 mmHg 73%
    17:00 +27°C° 0.2 mm 3 mps 743 mmHg 72%
    18:00 +26°C° 0 mm 3 mps 743 mmHg 75%
    19:00 +24°C° 0 mm 2 mps 742 mmHg 79%
    20:00 +23°C° 0 mm 2 mps 742 mmHg 82%
    21:00 +22°C° 0 mm 1 mps 742 mmHg 84%
    22:00 +21°C° 0 mm 1 mps 743 mmHg 85%
    23:00 +20°C° 0 mm 1 mps 743 mmHg 86%

    Day after tomorrow, 27 June, Thursday

    Time Temperature Precipitation Wind Pressure Humidity
    00:00 +20°C° 0 mm 1 mps 742 mmHg 87%
    01:00 +19°C° 0 mm 1 mps 742 mmHg 88%
    02:00 +19°C° 0 mm 1 mps 742 mmHg 89%
    03:00 +19°C° 0 mm 1 mps 742 mmHg 90%
    04:00 +18°C° 0 mm 1 mps 741 mmHg 91%
    05:00 +18°C° 0 mm 1 mps 741 mmHg 91%
    06:00 +20°C° 0 mm 1 mps 741 mmHg 86%
    07:00 +21°C° 0 mm 1 mps 741 mmHg 80%
    08:00 +23°C° 0 mm 1 mps 740 mmHg 75%
    09:00 +25°C° 0 mm 1 mps 740 mmHg 69%
    10:00 +26°C° 0 mm 2 mps 740 mmHg 64%
    11:00 +27°C° 0 mm 2 mps 740 mmHg 59%
    12:00 +28°C° 0 mm 2 mps 739 mmHg 58%
    13:00 +29°C° 0 mm 2 mps 739 mmHg 56%
    14:00 +29°C° 0 mm 2 mps 738 mmHg 55%
    15:00 +29°C° 0 mm 2 mps 738 mmHg 57%
    16:00 +29°C° 0 mm 3 mps 737 mmHg 60%
    17:00 +29°C° 0 mm 3 mps 737 mmHg 63%
    18:00 +27°C° 0 mm 3 mps 736 mmHg 68%
    19:00 +26°C° 0 mm 2 mps 736 mmHg 73%
    20:00 +24°C° 0 mm 2 mps 736 mmHg 79%
    21:00 +23°C° 0 mm 2 mps 736 mmHg 78%
    22:00 +21°C° 0 mm 2 mps 736 mmHg 76%
    23:00 +21°C° 0 mm 2 mps 736 mmHg 75%

    28 June, Friday

    Time Temperature Precipitation Wind Pressure Humidity
    00:00 +21°C° 0 mm 2 mps 736 mmHg 75%
    01:00 +22°C° 0 mm 1 mps 735 mmHg 75%
    02:00 +22°C° 0 mm 1 mps 735 mmHg 74%
    03:00 +22°C° 0 mm 1 mps 735 mmHg 76%
    04:00 +21°C° 0 mm 1 mps 735 mmHg 78%
    05:00 +21°C° 0 mm 1 mps 735 mmHg 80%
    06:00 +22°C° 0 mm 1 mps 735 mmHg 79%
    07:00 +24°C° 0 mm 1 mps 735 mmHg 79%
    08:00 +25°C° 0 mm 2 mps 735 mmHg 78%
    09:00 +25°C° 0.6 mm 2 mps 735 mmHg 80%
    10:00 +25°C° 0.6 mm 2 mps 735 mmHg 82%
    11:00 +25°C° 0.6 mm 2 mps 736 mmHg 85%
    12:00 +24°C° 1.1 mm 3 mps 735 mmHg 84%
    13:00 +24°C° 1.1 mm 3 mps 735 mmHg 83%
    14:00 +24°C° 1.1 mm 3 mps 735 mmHg 82%
    15:00 +22°C° 0.5 mm 3 mps 735 mmHg 84%
    16:00 +21°C° 0.5 mm 3 mps 736 mmHg 86%
    17:00 +20°C° 0.5 mm 2 mps 736 mmHg 87%
    18:00 +20°C° 0.1 mm 2 mps 736 mmHg 88%
    19:00 +20°C° 0.1 mm 1 mps 736 mmHg 89%
    20:00 +20°C° 0.1 mm 1 mps 737 mmHg 89%
    21:00 +18°C° 0 mm 0 mps 737 mmHg 89%
    22:00 +18°C° 0 mm 0 mps 738 mmHg 89%
    23:00 +18°C° 0 mm 0 mps 738 mmHg 89%

    29 June, Saturday

    Time Temperature Precipitation Wind Pressure Humidity
    00:00 +17°C° 0 mm 0 mps 738 mmHg 90%
    01:00 +17°C° 0 mm 0 mps 738 mmHg 90%
    02:00 +16°C° 0 mm 0 mps 738 mmHg 91%
    03:00 +16°C° 0.1 mm 0 mps 738 mmHg 91%
    04:00 +16°C° 0.1 mm 0 mps 738 mmHg 92%
    05:00 +16°C° 0.1 mm 0 mps 737 mmHg 92%
    06:00 +16°C° 0 mm 0 mps 738 mmHg 89%
    07:00 +17°C° 0 mm 0 mps 738 mmHg 87%
    08:00 +18°C° 0 mm 0 mps 738 mmHg 84%
    09:00 +19°C° 0.1 mm 0 mps 738 mmHg 77%
    10:00 +22°C° 0.1 mm 1 mps 738 mmHg 71%
    11:00 +23°C° 0.1 mm 1 mps 738 mmHg 64%
    12:00 +24°C° 0.3 mm 2 mps 737 mmHg 64%
    13:00 +24°C° 0.3 mm 2 mps 737 mmHg 64%
    14:00 +25°C° 0.3 mm 2 mps 736 mmHg 64%
    15:00 +25°C° 0.6 mm 2 mps 736 mmHg 67%
    16:00 +24°C° 0.6 mm 3 mps 736 mmHg 70%
    17:00 +24°C° 0.6 mm 3 mps 736 mmHg 73%
    18:00 +21°C° 0.9 mm 3 mps 736 mmHg 79%
    19:00 +19°C° 0.9 mm 3 mps 736 mmHg 84%
    20:00 +17°C° 0.9 mm 3 mps 736 mmHg 90%
    21:00 +17°C° 0.9 mm 4 mps 737 mmHg 90%
    22:00 +15°C° 0.9 mm 4 mps 738 mmHg 91%
    23:00 +14°C° 0.9 mm 4 mps 739 mmHg 91%

    30 June, Sunday

    Time Temperature Precipitation Wind Pressure Humidity
    00:00 +14°C° 0.2 mm 3 mps 739 mmHg 88%
    01:00 +14°C° 0.2 mm 2 mps 739 mmHg 86%
    02:00 +14°C° 0.2 mm 1 mps 739 mmHg 83%
    03:00 +13°C° 0 mm 1 mps 740 mmHg 83%
    04:00 +12°C° 0 mm 1 mps 740 mmHg 84%
    05:00 +11°C° 0 mm 1 mps 740 mmHg 84%
    06:00 +13°C° 0 mm 1 mps 741 mmHg 79%
    07:00 +14°C° 0 mm 1 mps 741 mmHg 74%
    08:00 +16°C° 0 mm 1 mps 742 mmHg 69%
    09:00 +18°C° 0 mm 1 mps 742 mmHg 65%
    10:00 +18°C° 0 mm 2 mps 742 mmHg 61%
    11:00 +19°C° 0 mm 2 mps 742 mmHg 57%
    12:00 +20°C° 0.1 mm 3 mps 742 mmHg 56%
    13:00 +20°C° 0.1 mm 3 mps 741 mmHg 55%
    14:00 +21°C° 0.1 mm 3 mps 741 mmHg 53%
    15:00 +21°C° 0 mm 3 mps 741 mmHg 54%
    16:00 +21°C° 0 mm 3 mps 741 mmHg 54%
    17:00 +21°C° 0 mm 2 mps 741 mmHg 54%
    18:00 +19°C° 0 mm 2 mps 741 mmHg 58%
    19:00 +18°C° 0 mm 1 mps 741 mmHg 62%
    20:00 +15°C° 0 mm 0 mps 741 mmHg 66%
    21:00 +15°C° 0 mm 1 mps 742 mmHg 67%
    22:00 +15°C° 0 mm 1 mps 742 mmHg 68%
    23:00 +14°C° 0 mm 1 mps 742 mmHg 69%
    Show more